Wotan — V2CA5 — position and weather

sailwx.info

Track history (hours):
 
Tides and Currents Weather Stations Pressure Air Temp Water Temp Dewpoint Dewpoint Depression Visibility Wind Speed Wind Dir Waves Ship Positions

Wotan

Last reported at 2014-Jul-30 14:32 UTC. Time now 2014-Jul-31 17:38 UTC.
Position N 63°36' E 010°38'.

Length 100 m; draft 4.6 m.

Type: Cargo ship. MMSI: 304195000.

Date/timePositionNaut miles runAvg speedWind from/ knotsBaromVisibWave heightAir tempDewpointWater temp
2014-Jul-30 14:32N 63°36' E 010°38'1010.1
2014-Jul-30 13:33N 63°28' E 010°27'9 9.3
2014-Jul-30 12:33N 63°28' E 010°06'  
2014-Jul-28 05:33N 59°13' W 004°04'9 8.9
2014-Jul-28 04:33N 59°05' W 004°13'8 8.4
2014-Jul-28 03:33N 58°59' W 004°23'9 8.7
2014-Jul-28 02:33N 58°53' W 004°35'38 8.7
2014-Jul-27 22:14N 58°24' W 005°23'16 9.7
2014-Jul-27 20:33N 58°11' W 005°40'12 9.2
2014-Jul-27 19:16N 58°02' W 005°54'128 8.0
2014-Jul-27 03:19N 55°58' W 006°56'910.5
2014-Jul-27 02:29N 55°50' W 006°51'1111.5
2014-Jul-27 01:33N 55°40' W 006°46'1111.4
2014-Jul-27 00:33N 55°33' W 006°30'1010.3
2014-Jul-26 23:33N 55°27' W 006°15'9 8.7
2014-Jul-26 22:33N 55°23' W 006°01'7 7.3
2014-Jul-26 21:33N 55°17' W 005°54'6 6.3
2014-Jul-26 20:33N 55°12' W 005°48'8 7.6
2014-Jul-26 19:30N 55°05' W 005°42'9 7.6
2014-Jul-26 18:17N 54°56' W 005°35'6 8.8
2014-Jul-26 17:34N 54°50' W 005°31'9 9.1
2014-Jul-26 16:34N 54°42' W 005°26'10 9.8
2014-Jul-26 15:34N 54°32' W 005°22'10 9.9
2014-Jul-26 14:33N 54°22' W 005°20'1010.0
2014-Jul-26 13:33N 54°12' W 005°22'139 9.1
2014-Jul-25 22:14N 51°59' W 006°30'6 9.6
2014-Jul-25 21:33N 51°58' W 006°41'9 9.4
2014-Jul-25 20:33N 51°56' W 006°55'9 9.5
2014-Jul-25 19:33N 51°53' W 007°10'9 9.5
2014-Jul-25 18:33N 51°51' W 007°25'9 9.5
2014-Jul-25 17:33N 51°49' W 007°40'9 9.4
2014-Jul-25 16:33N 51°46' W 007°55'9 9.3
2014-Jul-25 15:33N 51°44' W 008°09'7 7.1
2014-Jul-25 14:33N 51°50' W 008°16'3 3.1
2014-Jul-25 13:32N 51°52' W 008°20'0 0.0
2014-Jul-25 12:32N 51°52' W 008°20'0 0.0
2014-Jul-25 11:32N 51°52' W 008°20'0 0.0
2014-Jul-25 10:32N 51°52' W 008°20'0 0.0
2014-Jul-25 09:32N 51°52' W 008°20'0 0.0
2014-Jul-25 08:32N 51°52' W 008°20'0 0.0
2014-Jul-25 07:32N 51°52' W 008°20'0 0.0
2014-Jul-25 06:26N 51°52' W 008°20'0 0.0
2014-Jul-25 05:32N 51°52' W 008°20'0 0.0
2014-Jul-25 04:32N 51°52' W 008°20'0 0.0
2014-Jul-25 03:32N 51°52' W 008°20'0 0.0
2014-Jul-25 02:32N 51°52' W 008°20'0 0.0
2014-Jul-25 01:32N 51°52' W 008°20'0 0.0
2014-Jul-25 00:32N 51°52' W 008°20'0 0.0
2014-Jul-24 23:32N 51°52' W 008°20'0 0.0
2014-Jul-24 22:32N 51°52' W 008°20'0 0.0
2014-Jul-24 21:32N 51°52' W 008°20'0 0.0
2014-Jul-24 20:32N 51°52' W 008°20'0 0.0
2014-Jul-24 19:32N 51°52' W 008°20'0 0.0
2014-Jul-24 18:32N 51°52' W 008°20'0 0.0
2014-Jul-24 17:32N 51°52' W 008°20'0 0.0
2014-Jul-24 16:32N 51°52' W 008°20'0 0.0
2014-Jul-24 15:32N 51°52' W 008°20'0 0.0
2014-Jul-24 14:32N 51°52' W 008°20'0 0.0
2014-Jul-24 13:32N 51°52' W 008°20'0 0.0
2014-Jul-24 12:32N 51°52' W 008°20'0 0.0
2014-Jul-24 11:32N 51°52' W 008°20'0 0.0
2014-Jul-24 10:32N 51°52' W 008°20'0 0.0
2014-Jul-24 09:32N 51°52' W 008°20'0 0.0
2014-Jul-24 08:32N 51°52' W 008°20'0 0.0
2014-Jul-24 07:32N 51°52' W 008°20'0 0.0
2014-Jul-24 06:32N 51°52' W 008°20'0 0.0
2014-Jul-24 05:32N 51°52' W 008°20'0 0.0
2014-Jul-24 04:32N 51°52' W 008°20'0 0.0
2014-Jul-24 03:32N 51°52' W 008°20'0 0.0
2014-Jul-24 02:32N 51°52' W 008°20'0 0.0
2014-Jul-24 01:32N 51°52' W 008°20'0 0.0
2014-Jul-24 00:32N 51°52' W 008°20'0 0.0
2014-Jul-23 23:32N 51°52' W 008°20'0 0.0
2014-Jul-23 22:32N 51°52' W 008°20'0 0.0
2014-Jul-23 21:32N 51°52' W 008°20'0 0.0
2014-Jul-23 20:32N 51°52' W 008°20'0 0.0
2014-Jul-23 19:32N 51°52' W 008°20'0 0.0
2014-Jul-23 18:32N 51°52' W 008°20'0 0.0
2014-Jul-23 16:29N 51°52' W 008°20'0 0.2
2014-Jul-23 15:33N 51°52' W 008°20'5 4.9
2014-Jul-23 14:32N 51°54' W 008°27'0 0.0
2014-Jul-23 13:32N 51°54' W 008°27'0 0.0
2014-Jul-23 12:29N 51°54' W 008°27'0 0.0
2014-Jul-23 11:32N 51°54' W 008°27'0 0.0
2014-Jul-23 10:32N 51°54' W 008°27'0 0.0
2014-Jul-23 09:32N 51°54' W 008°28'0 0.0
2014-Jul-23 08:32N 51°54' W 008°28'0 0.0
2014-Jul-23 07:29N 51°54' W 008°28'0 0.0
2014-Jul-23 06:32N 51°54' W 008°28'0 0.0
2014-Jul-23 05:32N 51°54' W 008°28'0 0.0
2014-Jul-23 04:32N 51°54' W 008°28'0 0.0
2014-Jul-23 03:32N 51°54' W 008°28'0 0.0
2014-Jul-23 02:32N 51°54' W 008°28'0 0.0
2014-Jul-23 01:29N 51°54' W 008°28'0 0.0
2014-Jul-23 00:32N 51°54' W 008°28'0 0.0
2014-Jul-22 23:29N 51°54' W 008°28'0 0.0
2014-Jul-22 22:32N 51°54' W 008°28'0 0.0
2014-Jul-22 21:32N 51°54' W 008°28'0 0.0
2014-Jul-22 20:32N 51°54' W 008°28'0 0.0
2014-Jul-22 19:32N 51°54' W 008°28'0 0.0
2014-Jul-22 18:32N 51°54' W 008°28'0 0.0
2014-Jul-22 17:32N 51°54' W 008°28'0 0.0
2014-Jul-22 16:32N 51°54' W 008°28'0 0.0
2014-Jul-22 15:32N 51°54' W 008°28'0 0.0
2014-Jul-22 14:32N 51°54' W 008°28'0 0.0
2014-Jul-22 13:32N 51°54' W 008°28'0 0.0
2014-Jul-22 12:32N 51°54' W 008°28'0 0.0
2014-Jul-22 11:32N 51°54' W 008°28'1 0.5
2014-Jul-22 10:33N 51°54' W 008°27'6 6.5
2014-Jul-22 09:33N 51°51' W 008°18'7 7.1
2014-Jul-22 08:33N 51°44' W 008°14'9 9.4
2014-Jul-22 07:33N 51°38' W 008°03'10 9.5
2014-Jul-22 06:33N 51°31' W 007°51'259 7.6
2014-Jul-20 20:18N 50°23' W 001°15'911.0
2014-Jul-20 19:31N 50°24' W 001°02'1110.9
2014-Jul-20 18:33N 50°26' W 000°45'8 8.1
2014-Jul-20 17:33N 50°28' W 000°33'8 8.2
2014-Jul-20 16:33N 50°30' W 000°20'11 7.7
2014-Jul-20 15:10N 50°32' W 000°04'  
Track history (hours):
 
Tides and Currents Weather Stations Pressure Air Temp Water Temp Dewpoint Dewpoint Depression Visibility Wind Speed Wind Dir Waves Ship Positions

Wotan

Last reported at 2014-Jul-30 14:32 UTC. Time now 2014-Jul-31 17:38 UTC.
Position N 63°36' E 010°38'.

Length 100 m; draft 4.6 m.

Type: Cargo ship. MMSI: 304195000.

Date/timePositionNaut miles runAvg speedWind from/ knotsBaromVisibWave heightAir tempDewpointWater temp
2014-Jul-30 14:32N 63°36' E 010°38'1010.1
2014-Jul-30 13:33N 63°28' E 010°27'9 9.3
2014-Jul-30 12:33N 63°28' E 010°06'  
2014-Jul-28 05:33N 59°13' W 004°04'9 8.9
2014-Jul-28 04:33N 59°05' W 004°13'8 8.4
2014-Jul-28 03:33N 58°59' W 004°23'9 8.7
2014-Jul-28 02:33N 58°53' W 004°35'38 8.7
2014-Jul-27 22:14N 58°24' W 005°23'16 9.7
2014-Jul-27 20:33N 58°11' W 005°40'12 9.2
2014-Jul-27 19:16N 58°02' W 005°54'128 8.0
2014-Jul-27 03:19N 55°58' W 006°56'910.5
2014-Jul-27 02:29N 55°50' W 006°51'1111.5
2014-Jul-27 01:33N 55°40' W 006°46'1111.4
2014-Jul-27 00:33N 55°33' W 006°30'1010.3
2014-Jul-26 23:33N 55°27' W 006°15'9 8.7
2014-Jul-26 22:33N 55°23' W 006°01'7 7.3
2014-Jul-26 21:33N 55°17' W 005°54'6 6.3
2014-Jul-26 20:33N 55°12' W 005°48'8 7.6
2014-Jul-26 19:30N 55°05' W 005°42'9 7.6
2014-Jul-26 18:17N 54°56' W 005°35'6 8.8
2014-Jul-26 17:34N 54°50' W 005°31'9 9.1
2014-Jul-26 16:34N 54°42' W 005°26'10 9.8
2014-Jul-26 15:34N 54°32' W 005°22'10 9.9
2014-Jul-26 14:33N 54°22' W 005°20'1010.0
2014-Jul-26 13:33N 54°12' W 005°22'139 9.1
2014-Jul-25 22:14N 51°59' W 006°30'6 9.6
2014-Jul-25 21:33N 51°58' W 006°41'9 9.4
2014-Jul-25 20:33N 51°56' W 006°55'9 9.5
2014-Jul-25 19:33N 51°53' W 007°10'9 9.5
2014-Jul-25 18:33N 51°51' W 007°25'9 9.5
2014-Jul-25 17:33N 51°49' W 007°40'9 9.4
2014-Jul-25 16:33N 51°46' W 007°55'9 9.3
2014-Jul-25 15:33N 51°44' W 008°09'7 7.1
2014-Jul-25 14:33N 51°50' W 008°16'3 3.1
2014-Jul-25 13:32N 51°52' W 008°20'0 0.0
2014-Jul-25 12:32N 51°52' W 008°20'0 0.0
2014-Jul-25 11:32N 51°52' W 008°20'0 0.0
2014-Jul-25 10:32N 51°52' W 008°20'0 0.0
2014-Jul-25 09:32N 51°52' W 008°20'0 0.0
2014-Jul-25 08:32N 51°52' W 008°20'0 0.0
2014-Jul-25 07:32N 51°52' W 008°20'0 0.0
2014-Jul-25 06:26N 51°52' W 008°20'0 0.0
2014-Jul-25 05:32N 51°52' W 008°20'0 0.0
2014-Jul-25 04:32N 51°52' W 008°20'0 0.0
2014-Jul-25 03:32N 51°52' W 008°20'0 0.0
2014-Jul-25 02:32N 51°52' W 008°20'0 0.0
2014-Jul-25 01:32N 51°52' W 008°20'0 0.0
2014-Jul-25 00:32N 51°52' W 008°20'0 0.0
2014-Jul-24 23:32N 51°52' W 008°20'0 0.0
2014-Jul-24 22:32N 51°52' W 008°20'0 0.0
2014-Jul-24 21:32N 51°52' W 008°20'0 0.0
2014-Jul-24 20:32N 51°52' W 008°20'0 0.0
2014-Jul-24 19:32N 51°52' W 008°20'0 0.0
2014-Jul-24 18:32N 51°52' W 008°20'0 0.0
2014-Jul-24 17:32N 51°52' W 008°20'0 0.0
2014-Jul-24 16:32N 51°52' W 008°20'0 0.0
2014-Jul-24 15:32N 51°52' W 008°20'0 0.0
2014-Jul-24 14:32N 51°52' W 008°20'0 0.0
2014-Jul-24 13:32N 51°52' W 008°20'0 0.0
2014-Jul-24 12:32N 51°52' W 008°20'0 0.0
2014-Jul-24 11:32N 51°52' W 008°20'0 0.0
2014-Jul-24 10:32N 51°52' W 008°20'0 0.0
2014-Jul-24 09:32N 51°52' W 008°20'0 0.0
2014-Jul-24 08:32N 51°52' W 008°20'0 0.0
2014-Jul-24 07:32N 51°52' W 008°20'0 0.0
2014-Jul-24 06:32N 51°52' W 008°20'0 0.0
2014-Jul-24 05:32N 51°52' W 008°20'0 0.0
2014-Jul-24 04:32N 51°52' W 008°20'0 0.0
2014-Jul-24 03:32N 51°52' W 008°20'0 0.0
2014-Jul-24 02:32N 51°52' W 008°20'0 0.0
2014-Jul-24 01:32N 51°52' W 008°20'0 0.0
2014-Jul-24 00:32N 51°52' W 008°20'0 0.0
2014-Jul-23 23:32N 51°52' W 008°20'0 0.0
2014-Jul-23 22:32N 51°52' W 008°20'0 0.0
2014-Jul-23 21:32N 51°52' W 008°20'0 0.0
2014-Jul-23 20:32N 51°52' W 008°20'0 0.0
2014-Jul-23 19:32N 51°52' W 008°20'0 0.0
2014-Jul-23 18:32N 51°52' W 008°20'0 0.0
2014-Jul-23 16:29N 51°52' W 008°20'0 0.2
2014-Jul-23 15:33N 51°52' W 008°20'5 4.9
2014-Jul-23 14:32N 51°54' W 008°27'0 0.0
2014-Jul-23 13:32N 51°54' W 008°27'0 0.0
2014-Jul-23 12:29N 51°54' W 008°27'0 0.0
2014-Jul-23 11:32N 51°54' W 008°27'0 0.0
2014-Jul-23 10:32N 51°54' W 008°27'0 0.0
2014-Jul-23 09:32N 51°54' W 008°28'0 0.0
2014-Jul-23 08:32N 51°54' W 008°28'0 0.0
2014-Jul-23 07:29N 51°54' W 008°28'0 0.0
2014-Jul-23 06:32N 51°54' W 008°28'0 0.0
2014-Jul-23 05:32N 51°54' W 008°28'0 0.0
2014-Jul-23 04:32N 51°54' W 008°28'0 0.0
2014-Jul-23 03:32N 51°54' W 008°28'0 0.0
2014-Jul-23 02:32N 51°54' W 008°28'0 0.0
2014-Jul-23 01:29N 51°54' W 008°28'0 0.0
2014-Jul-23 00:32N 51°54' W 008°28'0 0.0
2014-Jul-22 23:29N 51°54' W 008°28'0 0.0
2014-Jul-22 22:32N 51°54' W 008°28'0 0.0
2014-Jul-22 21:32N 51°54' W 008°28'0 0.0
2014-Jul-22 20:32N 51°54' W 008°28'0 0.0
2014-Jul-22 19:32N 51°54' W 008°28'0 0.0
2014-Jul-22 18:32N 51°54' W 008°28'0 0.0
2014-Jul-22 17:32N 51°54' W 008°28'0 0.0
2014-Jul-22 16:32N 51°54' W 008°28'0 0.0
2014-Jul-22 15:32N 51°54' W 008°28'0 0.0
2014-Jul-22 14:32N 51°54' W 008°28'0 0.0
2014-Jul-22 13:32N 51°54' W 008°28'0 0.0
2014-Jul-22 12:32N 51°54' W 008°28'0 0.0
2014-Jul-22 11:32N 51°54' W 008°28'1 0.5
2014-Jul-22 10:33N 51°54' W 008°27'6 6.5
2014-Jul-22 09:33N 51°51' W 008°18'7 7.1
2014-Jul-22 08:33N 51°44' W 008°14'9 9.4
2014-Jul-22 07:33N 51°38' W 008°03'10 9.5
2014-Jul-22 06:33N 51°31' W 007°51'259 7.6
2014-Jul-20 20:18N 50°23' W 001°15'911.0
2014-Jul-20 19:31N 50°24' W 001°02'1110.9
2014-Jul-20 18:33N 50°26' W 000°45'8 8.1
2014-Jul-20 17:33N 50°28' W 000°33'8 8.2
2014-Jul-20 16:33N 50°30' W 000°20'11 7.7
2014-Jul-20 15:10N 50°32' W 000°04'  

Dump ship's entire track history